Location: Alafon
(8.4500°N, 4.2333°E)
Time: 01:42:30
(UTC+00:00)

Meteor 2-21 - Pass Details

Date: 05 July 2020
Orbit: 933 x 968 km, 82.5° (Epoch: 06 August)

Event Time Altitude Azimuth Distance (km) Brightness Sun altitude
Rises 19:10:49 0° 180° (S) 3,646 7.2 -15.5°
Reaches altitude 10° 19:13:20 10° 179° (S) 2,701 6.6 -16.0°
Maximum altitude 19:19:31 77° 93° (E) 992 4.4 -17.4°
Drops below altitude 10° 19:25:41 10° 8° (N) 2,696 7.0 -18.7°
Sets 19:28:11 0° 7° (N) 3,639 7.8 -19.3°
